N0TRB Weather Reports


Display with metric or nautical units.
time (UTC)temp
F
wind
direction
speed
MPH
gust
MPH
rain 1hr
in
rain 24hr
in
rain mn
in
humidity
%
barometer
mb
20211205044554 27 139 0.0 6.0 0.00 0.00 0.00 92 1021.9
20211205043028 27 138 0.0 4.0 0.00 0.00 0.00 92 1022.1
20211205041530 27 138 0.0 3.0 0.00 0.00 0.00 91 1022.4
20211205040044 27 147 0.0 6.0 0.00 0.00 0.00 91 1022.7
20211205034547 27 127 0.0 7.0 0.00 0.00 0.00 90 1022.9
20211205033029 28 153 0.0 6.0 0.00 0.00 0.00 90 1023.3
20211205031518 28 153 1.0 5.0 0.00 0.00 0.00 89 1023.6
20211205030025 28 155 0.0 2.0 0.00 0.00 0.00 87 1023.5
20211205024514 28 155 1.0 6.0 0.00 0.00 0.00 84 1023.8
20211205023037 29 163 0.0 4.0 0.00 0.00 0.00 79 1024.1
20211205021524 30 163 0.0 6.0 0.00 0.00 0.00 75 1024.0
20211205020005 30 165 0.0 5.0 0.00 0.00 0.00 74 1023.8
20211205014504 30 300 0.0 0.0 0.00 0.00 0.00 73 1024.2
20211205013006 30 300 0.0 0.0 0.00 0.00 0.00 73 1024.6
20211205011703 30 299 0.0 0.0 0.00 0.00 0.00 73 1024.5
20211205010110 30 300 0.0 0.0 0.00 0.00 0.00 74 1024.4
20211205004619 30 300 0.0 2.0 0.00 0.00 0.00 72 1024.7
20211205003130 30 311 0.0 2.0 0.00 0.00 0.00 74 1025.0
20211205001644 30 311 0.0 0.0 0.00 0.00 0.00 73 1025.2
20211205000153 30 312 0.0 0.0 0.00 0.00 0.00 72 1025.4
20211204234633 30 311 0.0 0.0 0.00 0.00 0.00 71 1025.7
20211204233059 30 312 0.0 0.0 0.00 0.00 0.00 71 1025.7
20211204231725 30 312 0.0 0.0 0.00 0.00 0.00 69 1025.9
20211204230118 31 311 0.0 0.0 0.00 0.00 0.00 69 1025.9
20211204224642 31 311 0.0 0.0 0.00 0.00 0.00 69 1026.2
20211204223119 31 312 0.0 0.0 0.00 0.00 0.00 69 1026.3
20211204221713 31 312 0.0 0.0 0.00 0.00 0.00 68 1026.4
20211204220100 31 312 0.0 0.0 0.00 0.00 0.00 67 1026.4
20211204214616 32 312 0.0 0.0 0.00 0.00 0.00 67 1026.7
20211204213152 32 312 0.0 0.0 0.00 0.00 0.00 65 1026.8
20211204211651 32 312 0.0 0.0 0.00 0.00 0.00 66 1026.8
20211204210121 32 311 0.0 4.0 0.00 0.00 0.00 66 1026.9
20211204204615 32 312 0.0 4.0 0.00 0.00 0.00 63 1026.9
20211204203159 32 315 0.0 5.0 0.00 0.00 0.00 63 1026.8
20211204201629 32 316 0.0 1.0 0.00 0.00 0.00 65 1026.7
20211204200100 32 315 0.0 6.0 0.00 0.00 0.00 64 1026.6
20211204194639 32 321 0.0 5.0 0.00 0.00 0.00 62 1027.4
20211204193058 32 320 0.0 6.0 0.00 0.00 0.00 62 1026.8
20211204191707 32 329 0.0 5.0 0.00 0.00 0.00 63 1027.3
20211204190202 32 331 2.0 6.0 0.00 0.00 0.00 63 1027.3
20211204184616 32 325 0.0 7.0 0.00 0.00 0.00 62 1027.4
20211204183100 32 336 0.0 5.0 0.00 0.00 0.00 59 1027.6
20211204181609 32 345 0.0 9.0 0.00 0.00 0.00 63 1027.8
20211204180049 32 290 2.0 8.0 0.00 0.00 0.00 63 1027.5
20211204174643 32 327 0.0 8.0 0.00 0.00 0.00 63 1027.9
20211204173106 32 290 2.0 6.0 0.00 0.00 0.00 65 1028.3
20211204171625 32 287 1.0 7.0 0.00 0.00 0.00 64 1027.8
20211204170250 32 283 0.0 7.0 0.00 0.00 0.00 65 1028.1
20211204164554 32 278 2.0 8.0 0.00 0.00 0.00 67 1028.0
20211204163113 32 273 4.0 9.0 0.00 0.00 0.00 67 1028.2
20211204161544 32 288 2.0 7.0 0.00 0.00 0.00 67 1028.1
20211204160135 31 277 4.0 11.0 0.00 0.00 0.00 66 1028.0
20211204154556 31 292 6.0 11.0 0.00 0.00 0.00 68 1027.9
20211204153024 31 281 3.0 10.0 0.00 0.00 0.00 65 1027.7
20211204151548 30 278 5.0 9.0 0.00 0.00 0.00 68 1027.6
20211204150029 30 290 3.0 10.0 0.00 0.00 0.00 70 1027.7
20211204144518 30 286 3.0 8.0 0.00 0.00 0.00 69 1027.6
20211204143106 30 298 4.0 10.0 0.00 0.00 0.00 69 1027.7
20211204141531 30 281 5.0 9.0 0.00 0.00 0.00 68 1027.0
20211204140015 29 278 4.0 8.0 0.00 0.00 0.00 69 1027.0
20211204134512 29 279 3.0 8.0 0.00 0.00 0.00 69 1026.8
20211204133012 29 296 2.0 10.0 0.00 0.00 0.00 69 1026.7
20211204131511 29 291 1.0 7.0 0.00 0.00 0.00 69 1026.8
20211204130025 30 300 4.0 8.0 0.00 0.00 0.00 68 1027.0
20211204124505 29 277 1.0 8.0 0.00 0.00 0.00 69 1026.7
20211204123017 30 270 4.0 11.0 0.00 0.00 0.00 68 1026.1
20211204121643 30 338 3.0 8.0 0.00 0.00 0.00 68 1026.0
20211204120137 30 292 3.0 10.0 0.00 0.00 0.00 68 1026.4
20211204114800 29 290 5.0 10.0 0.00 0.00 0.00 68 1026.0
20211204113151 29 325 2.0 9.0 0.00 0.00 0.00 69 1025.8
20211204111615 29 280 2.0 8.0 0.00 0.00 0.00 69 1026.0
20211204110114 29 282 1.0 7.0 0.00 0.00 0.00 69 1026.1
20211204104605 29 286 0.0 6.0 0.00 0.00 0.00 69 1025.8
20211204103119 29 268 1.0 8.0 0.00 0.00 0.00 69 1025.7
20211204101636 30 290 1.0 13.0 0.00 0.00 0.00 68 1025.8
20211204100056 30 299 0.0 7.0 0.00 0.00 0.00 68 1026.0
20211204094614 30 282 2.0 9.0 0.00 0.00 0.00 70 1025.9
20211204093049 30 279 5.0 11.0 0.00 0.00 0.00 69 1025.9
20211204091547 30 296 2.0 8.0 0.00 0.00 0.00 70 1025.8
20211204090057 30 290 1.0 8.0 0.00 0.00 0.00 72 1025.7
20211204084544 30 303 3.0 10.0 0.00 0.00 0.00 73 1025.5
20211204083205 29 288 2.0 9.0 0.00 0.00 0.00 74 1025.3
20211204081603 29 292 1.0 6.0 0.00 0.00 0.00 75 1025.1
20211204080037 29 304 0.0 7.0 0.00 0.00 0.00 75 1025.2
20211204074601 29 309 0.0 4.0 0.00 0.00 0.00 74 1024.9
20211204073050 29 311 0.0 6.0 0.00 0.00 0.00 75 1024.7
20211204071625 29 281 0.0 4.0 0.00 0.00 0.00 75 1024.6
20211204070049 29 280 0.0 7.0 0.00 0.00 0.00 74 1024.7
20211204064536 29 285 0.0 0.0 0.00 0.00 0.00 74 1024.7
20211204063032 29 279 0.0 0.0 0.00 0.00 0.00 74 1024.7
20211204061522 29 281 0.0 6.0 0.00 0.00 0.00 73 1024.6
20211204060016 30 297 0.0 8.0 0.00 0.00 0.00 72 1024.7
20211204054516 30 282 2.0 8.0 0.00 0.00 0.00 72 1024.7
20211204053011 30 284 0.0 7.0 0.00 0.00 0.00 73 1024.5
20211204051508 30 285 0.0 7.0 0.00 0.00 0.00 74 1024.3
20211204050010 30 277 2.0 8.0 0.00 0.00 0.00 76 1024.1